,

(GMT )
Capri

Weather History for LIQC - December, 2013

Change the Weather History Date:

Sunday, December 29, 2013

  Actual Average Record
Temperature  
Mean Temperature 56 °F -  
Max Temperature 62 °F - - ()
Min Temperature 50 °F - - ()
Degree Days  
Heating Degree Days 9    
Growing Degree Days 6 (Base 50)    
Moisture  
Dew Point 53 °F    
Average Humidity 89    
Maximum Humidity 100    
Minimum Humidity 72    
Precipitation  
Precipitation 0.02 in - - ()
Sea Level Pressure  
Sea Level Pressure 30.09 in    
Wind  
Wind Speed 1 mph ()    
Max Wind Speed 4 mph    
Max Gust Speed -    
Visibility 9.0 miles    
Events      
T = Trace of Precipitation, MM = Missing Value Source: Averaged Metar Reports

Daily Weather History Graph

Daily Weather History Graph

Search for Another Location

Airport or City:

Trip Planner

Search our weather history database for the weather conditions in past years. The results will help you decide how hot, cold, wet, or windy it might be!

Date:

Astronomy

Dec. 29, 2013 Rise Set
Actual Time 7:26 AM CET 4:44 PM CET
Civil Twilight 6:55 AM CET 5:15 PM CET
Nautical Twilight 6:21 AM CET 5:49 PM CET
Astronomical Twilight 5:47 AM CET 6:22 PM CET
Moon 3:50 AM CET (12/29) 2:08 PM CET (12/29)
Length of Visible Light 10h 19m
Length of Day
9h 18m
Waning Crescent, 13% of the Moon is Illuminated
Dec 29
Waning Crescent
Jan 1
New
Jan 8
First Quarter
Jan 16
Full
Jan 24
Last Quarter

Hourly Weather History & Observations

Time (CET) Temp. Dew Point Humidity Pressure Visibility Wind Dir Wind Speed Gust Speed Precip Events Conditions
12:55 AM 51.8 °F 50.0 °F 94% 30.04 in - North - - N/A   Clear
1:00 AM 52 °F 50 °F 91% 30.06 in 6 mi Calm Calm - -  
2:55 AM 53.6 °F 51.8 °F 94% 30.06 in - North - - N/A   Clear
3:55 AM 53.6 °F 50.0 °F 88% 30.06 in - North - - N/A   Clear
4:00 AM 54 °F 51 °F 85% 30.07 in 6 mi Calm Calm - -  
6:55 AM 53.6 °F 51.8 °F 94% 30.06 in - North - - N/A   Mostly Cloudy
7:00 AM 54 °F 51 °F 88% 30.07 in 6 mi Calm Calm - -   Mostly Cloudy
7:55 AM 53.6 °F 51.8 °F 94% 30.06 in - North - - N/A   Scattered Clouds
8:55 AM 53.6 °F 51.8 °F 94% 30.06 in - North - - N/A   Scattered Clouds
9:55 AM 53.6 °F 51.8 °F 94% 30.09 in - North - - N/A   Scattered Clouds
10:00 AM 54 °F 51 °F 86% 30.10 in 12 mi 2.3 mph - -   Partly Cloudy
10:55 AM 55.4 °F 51.8 °F 88% 30.09 in - North - - N/A   Scattered Clouds
11:55 AM 57.2 °F 51.8 °F 82% 30.09 in - North - - N/A   Scattered Clouds
12:55 PM 60.8 °F 53.6 °F 77% 30.09 in - North - - N/A   Mostly Cloudy
1:00 PM 60 °F 53 °F 72% 30.10 in 12 mi 3.5 mph - -   Mostly Cloudy
1:55 PM 60.8 °F 53.6 °F 77% 30.09 in - North - - N/A   Mostly Cloudy
2:55 PM 59.0 °F 53.6 °F 82% 30.09 in - North - - N/A   Mostly Cloudy
3:55 PM 57.2 °F 53.6 °F 88% 30.09 in - North - - N/A   Mostly Cloudy
4:00 PM 57 °F 54 °F 85% 30.10 in 12 mi 3.5 mph - -   Mostly Cloudy
4:55 PM 55.4 °F 53.6 °F 94% 30.09 in - North - - N/A   Mostly Cloudy
5:55 PM 55.4 °F 51.8 °F 88% 30.09 in - North - - N/A   Mostly Cloudy
6:55 PM 55.4 °F 53.6 °F 94% 30.09 in - North - - N/A   Mostly Cloudy
7:00 PM 56 °F 54 °F 90% 30.11 in 12 mi 1.2 mph - -   Mostly Cloudy
7:55 PM 55.4 °F 55.4 °F 100% 30.12 in - North - - N/A   Overcast
8:55 PM 55.4 °F 55.4 °F 100% 30.12 in - North - - N/A   Overcast
9:55 PM 55.4 °F 53.6 °F 94% 30.12 in - North - - N/A   Overcast
10:00 PM 55 °F 53 °F 91% 30.14 in 6 mi Calm Calm - -   Overcast
11:55 PM 55.4 °F 53.6 °F 94% 30.12 in - North - - N/A   Overcast